CZ-6A DEB

Satellite information

Favourite Embed

Satellite Type and Status

DEBRISIN ORBIT

Key statistics

Satellite CZ-6A DEB at a glance.

Uptime

970

Days in orbit

Revolutions

≈ 14.2

Per day

Orbit

SSO

Sun Synchronous Orbit

Inclination

98.8

Latest

Satellite identification and parameters

Extended collection of information and parameters for CZ-6A DEB.

Object identification

Identified? True

Debris? True

Object name: CZ-6A DEB

International designator: 2022-151KX

Object number (NORAD): 54547

Object ID (CCSDS): 54547

Country: PEOPLES REPUBLIC OF CHINA (PRC)

Current information (Y/N): Y

RCS size: SMALL

Orbital parameters

Period: 101.194 minutes

Inclination: 98.8079 deg

SMA: 7193.322 km

Apoapsis: 879.584 km

Periapsis: 750.789 km

RAAN: 193.9285 deg

Eccentricy: 0.0089524

Argument of periapsis: 263.4634 deg

Mean anomaly: 95.6346 deg

Mean motion: 14.23011906 rev/day

Mean motion (dot): 0.00003137 rev/day2

B* drag term: 0.0013554 1/REarth

Two-line elements (TLE)

Creation date: July 7, 2025, 11:16 p.m.

Reference frame: TEME

Reference center: EARTH

Epoch: July 7, 2025, 9:39 p.m. UTC

TLE line 0: 0 CZ-6A DEB

TLE line 1: 1 54547U 22151KX 25188.90210897 .00003137 00000-0 13554-2 0 9990

TLE line 2: 2 54547 98.8079 193.9285 0089524 263.4634 95.6346 14.23011906136562

Live tracking on map

Real-time ground track for satellite CZ-6A DEB.

In-orbit conjunctions

A list of the most updated potential collisions computed for object CZ-6A DEB.

Target Orbit TCA Probability of collision Miss distance Type
COSMOS 1570 LEO 2024-08-26 11:16:31 0.002172768 90.0 (m) PAYLOAD
THORAD AGENA D DEB SSO 2024-07-29 19:44:15 0.0001485294 188.0 (m) DEBRIS

Associated space launch

Chinese satellite reported for atmospheric/ocean/environmental/spatial parameter research purposes, details TBD.

CZ-6A DEB was lifted into orbit during the mission ‘Long March 6A | Yunhai 3’, on board a Long March 6A space rocket.

The launch took place on Nov. 11, 2022, 10:52 p.m. from Launch Complex 9A.

For more information about the launch, click the button.

Launch to space Long March 6A | Yunhai 3
Long March 6A | Yunhai 3

Agency: N/A

Status: Launch Successful

Launch date: Nov. 11, 2022, 10:52 p.m. UTC

Rocket: Long March 6A

Launch pad: Launch Complex 9A

Location: Taiyuan Satellite Launch Center, People's Republic of China

...

Latest news about this satellite

There are no fresh news available about this satellite. Check back as we update our databases every day.


Newsletter sign-up

Weekly statistics, charts and insights to help you stay on top of the space industry.